Time,TemperatureF,DewpointF,PressureIn,WindDirection,WindDirectionDegrees,WindSpeedMPH,WindSpeedGustMPH,Humidity,HourlyPrecipIn,Conditions,Clouds,dailyrainin,SoftwareType,DateUTC
2013-02-22 00:00:00,24.5,16.1,30.23,NNE,21,6.0,7.0,70,0.00,,,0.00,WeatherCatV1.12B45,2013-02-22 05:00:00,
2013-02-22 00:05:00,24.5,16.1,30.24,North,2,1.0,3.0,70,0.00,,,0.00,WeatherCatV1.12B45,2013-02-22 05:05:00,
2013-02-22 00:10:00,24.7,16.3,30.24,North,355,1.0,8.0,70,0.00,,,0.00,WeatherCatV1.12B45,2013-02-22 05:10:00,
2013-02-22 00:15:00,24.7,16.3,30.24,NNW,335,3.0,4.0,70,0.00,,,0.00,WeatherCatV1.12B45,2013-02-22 05:15:00,
2013-02-22 00:20:00,24.7,16.7,30.25,NE,53,1.0,2.0,71,0.00,,,0.00,WeatherCatV1.12B45,2013-02-22 05:20:00,
2013-02-22 00:25:00,24.7,16.7,30.26,WNW,295,6.0,7.0,71,0.00,,,0.00,WeatherCatV1.12B45,2013-02-22 05:25:00,
2013-02-22 00:30:00,24.7,16.7,30.26,North,353,4.0,5.0,71,41.65,,,0.00,WeatherCatV1.12B45,2013-02-22 05:30:00,
2013-02-22 00:35:00,24.8,16.8,30.26,North,353,2.0,4.0,71,0.02,,,0.00,WeatherCatV1.12B45,2013-02-22 05:35:00,
2013-02-22 00:40:00,24.8,16.8,30.27,North,358,4.0,5.0,71,0.00,,,0.00,WeatherCatV1.12B45,2013-02-22 05:40:00,
2013-02-22 00:45:00,24.9,16.9,30.26,North,359,2.0,8.0,71,0.00,,,0.00,WeatherCatV1.12B45,2013-02-22 05:45:00,
2013-02-22 00:50:00,24.8,16.8,30.27,NNE,15,2.0,5.0,71,0.00,,,0.00,WeatherCatV1.12B45,2013-02-22 05:50:00,
2013-02-22 00:55:00,24.8,17.1,30.28,NNE,15,0.0,5.0,72,0.00,,,0.00,WeatherCatV1.12B45,2013-02-22 05:55:00,
2013-02-22 01:00:00,24.7,16.7,30.27,NNE,15,0.0,3.0,71,0.00,,,0.00,WeatherCatV1.12B45,2013-02-22 06:00:00,
2013-02-22 01:05:00,24.5,16.8,30.27,NNE,15,1.0,3.0,72,0.00,,,0.34,WeatherCatV1.12B45,2013-02-22 06:05:00,
2013-02-22 01:08:00,24.5,16.8,30.27,NNE,15,1.0,3.0,72,0.00,,,0.34,WeatherCatV1.12B45,2013-02-22 06:08:00,
2013-02-22 01:13:00,24.4,16.7,30.28,NNE,15,1.0,2.0,72,0.00,,,0.34,WeatherCatV1.12B45,2013-02-22 06:13:00,
2013-02-22 01:18:00,24.4,17.0,30.28,NNE,23,1.0,4.0,73,0.00,,,0.34,WeatherCatV1.12B45,2013-02-22 06:18:00,
2013-02-22 01:23:00,24.4,16.7,30.28,NNE,21,4.0,4.0,72,0.00,,,0.34,WeatherCatV1.12B45,2013-02-22 06:23:00,
2013-02-22 01:26:00,24.5,16.8,30.28,NNE,21,3.0,3.0,72,0.00,,,0.34,WeatherCatV1.12B45,2013-02-22 06:26:00,
2013-02-22 01:31:00,24.7,17.3,30.28,North,0,2.0,6.0,73,0.00,,,0.34,WeatherCatV1.12B45,2013-02-22 06:31:00,
2013-02-22 01:36:00,24.6,16.9,30.27,North,7,1.0,4.0,72,0.00,,,0.34,WeatherCatV1.12B45,2013-02-22 06:36:00,
2013-02-22 01:41:00,24.5,17.1,30.27,NE,35,3.0,3.0,73,0.00,,,0.34,WeatherCatV1.12B45,2013-02-22 06:41:00,
2013-02-22 01:46:00,24.5,17.1,30.26,NE,41,2.0,4.0,73,0.00,,,0.34,WeatherCatV1.12B45,2013-02-22 06:46:00,
2013-02-22 01:51:00,24.6,17.2,30.27,North,0,0.0,4.0,73,0.00,,,0.34,WeatherCatV1.12B45,2013-02-22 06:51:00,
2013-02-22 01:56:00,24.5,17.1,30.28,North,0,0.0,3.0,73,0.00,,,0.34,WeatherCatV1.12B45,2013-02-22 06:56:00,
2013-02-22 02:01:00,24.4,17.0,30.28,North,0,0.0,2.0,73,0.00,,,0.34,WeatherCatV1.12B45,2013-02-22 07:01:00,
2013-02-22 02:06:00,24.2,16.8,30.27,NNW,344,0.0,3.0,73,0.00,,,0.34,WeatherCatV1.12B45,2013-02-22 07:06:00,
2013-02-22 02:11:00,24.2,17.1,30.28,NNW,347,0.0,2.0,74,0.00,,,0.34,WeatherCatV1.12B45,2013-02-22 07:11:00,
2013-02-22 02:16:00,24.2,17.1,30.27,NNW,348,0.0,3.0,74,0.00,,,0.34,WeatherCatV1.12B45,2013-02-22 07:16:00,
2013-02-22 02:21:00,24.1,17.0,30.27,North,8,4.0,6.0,74,0.00,,,0.34,WeatherCatV1.12B45,2013-02-22 07:21:00,
2013-02-22 02:26:00,24.1,17.0,30.27,NW,326,3.0,4.0,74,0.00,,,0.34,WeatherCatV1.12B45,2013-02-22 07:26:00,
2013-02-22 02:31:00,24.1,17.3,30.28,North,354,1.0,4.0,75,0.00,,,0.34,WeatherCatV1.12B45,2013-02-22 07:31:00,
2013-02-22 02:36:00,24.1,17.3,30.29,North,356,1.0,1.0,75,0.00,,,0.34,WeatherCatV1.12B45,2013-02-22 07:36:00,
2013-02-22 02:41:00,24.1,17.3,30.28,North,358,0.0,0.0,75,0.00,,,0.34,WeatherCatV1.12B45,2013-02-22 07:41:00,
2013-02-22 02:46:00,24.0,17.2,30.28,North,358,1.0,1.0,75,0.00,,,0.34,WeatherCatV1.12B45,2013-02-22 07:46:00,
2013-02-22 02:51:00,23.9,17.2,30.28,North,358,0.0,3.0,75,0.00,,,0.34,WeatherCatV1.12B45,2013-02-22 07:51:00,
2013-02-22 02:56:00,23.9,17.5,30.29,North,358,0.0,3.0,76,0.00,,,0.34,WeatherCatV1.12B45,2013-02-22 07:56:00,
2013-02-22 03:01:00,23.8,17.4,30.29,North,358,0.0,0.0,76,0.00,,,0.34,WeatherCatV1.12B45,2013-02-22 08:01:00,
2013-02-22 03:06:00,23.6,17.2,30.28,North,358,2.0,3.0,76,0.00,,,0.34,WeatherCatV1.12B45,2013-02-22 08:06:00,
2013-02-22 03:11:00,23.6,17.2,30.28,North,357,0.0,2.0,76,0.00,,,0.34,WeatherCatV1.12B45,2013-02-22 08:11:00,
2013-02-22 03:16:00,23.5,17.1,30.29,North,358,0.0,3.0,76,0.00,,,0.34,WeatherCatV1.12B45,2013-02-22 08:16:00,
2013-02-22 03:21:00,23.4,17.0,30.29,North,358,0.0,2.0,76,0.00,,,0.34,WeatherCatV1.12B45,2013-02-22 08:21:00,
2013-02-22 03:23:00,23.2,17.1,30.30,North,358,1.0,1.0,77,0.00,,,0.34,WeatherCatV1.12B45,2013-02-22 08:23:00,
2013-02-22 03:28:00,23.2,17.1,30.29,North,358,0.0,2.0,77,0.00,,,0.34,WeatherCatV1.12B45,2013-02-22 08:28:00,
2013-02-22 03:33:00,22.9,17.1,30.30,North,358,0.0,0.0,78,0.00,,,0.34,WeatherCatV1.12B45,2013-02-22 08:33:00,
2013-02-22 03:38:00,22.6,16.5,30.30,North,358,0.0,0.0,77,0.00,,,0.34,WeatherCatV1.12B45,2013-02-22 08:38:00,
2013-02-22 03:43:00,22.5,16.7,30.30,North,358,0.0,0.0,78,0.00,,,0.34,WeatherCatV1.12B45,2013-02-22 08:43:00,
2013-02-22 03:48:00,22.3,16.8,30.30,North,358,0.0,0.0,79,0.00,,,0.34,WeatherCatV1.12B45,2013-02-22 08:48:00,
2013-02-22 03:53:00,22.1,16.6,30.30,North,358,0.0,0.0,79,0.00,,,0.34,WeatherCatV1.12B45,2013-02-22 08:53:00,
2013-02-22 03:58:00,22.1,16.6,30.29,North,358,0.0,0.0,79,0.00,,,0.34,WeatherCatV1.12B45,2013-02-22 08:58:00,
2013-02-22 04:03:00,22.0,16.5,30.31,North,358,0.0,0.0,79,0.00,,,0.34,WeatherCatV1.12B45,2013-02-22 09:03:00,
2013-02-22 04:08:00,21.5,16.0,30.30,North,358,0.0,0.0,79,0.00,,,0.34,WeatherCatV1.12B45,2013-02-22 09:08:00,
2013-02-22 04:13:00,21.4,16.2,30.30,North,358,0.0,0.0,80,0.00,,,0.34,WeatherCatV1.12B45,2013-02-22 09:13:00,
2013-02-22 04:18:00,21.2,16.0,30.30,North,358,0.0,1.0,80,0.00,,,0.34,WeatherCatV1.12B45,2013-02-22 09:18:00,
2013-02-22 04:23:00,21.1,16.2,30.30,North,358,0.0,0.0,81,0.00,,,0.34,WeatherCatV1.12B45,2013-02-22 09:23:00,
2013-02-22 04:28:00,20.9,16.3,30.30,North,358,0.0,0.0,82,0.00,,,0.34,WeatherCatV1.12B45,2013-02-22 09:28:00,
2013-02-22 04:33:00,20.7,16.1,30.30,North,357,0.0,0.0,82,0.00,,,0.34,WeatherCatV1.12B45,2013-02-22 09:33:00,
2013-02-22 04:38:00,20.6,16.0,30.30,North,358,0.0,0.0,82,0.00,,,0.34,WeatherCatV1.12B45,2013-02-22 09:38:00,
2013-02-22 04:43:00,20.6,16.3,30.30,North,358,0.0,0.0,83,0.00,,,0.34,WeatherCatV1.12B45,2013-02-22 09:43:00,
2013-02-22 04:48:00,20.5,16.2,30.30,North,358,0.0,2.0,83,0.00,,,0.34,WeatherCatV1.12B45,2013-02-22 09:48:00,
2013-02-22 04:53:00,20.5,16.2,30.30,North,358,0.0,0.0,83,0.00,,,0.34,WeatherCatV1.12B45,2013-02-22 09:53:00,
2013-02-22 04:58:00,20.3,16.3,30.30,North,358,0.0,0.0,84,0.00,,,0.34,WeatherCatV1.12B45,2013-02-22 09:58:00,
2013-02-22 05:03:00,20.4,16.4,30.30,North,358,0.0,0.0,84,0.00,,,0.34,WeatherCatV1.12B45,2013-02-22 10:03:00,
2013-02-22 05:08:00,20.6,16.5,30.31,North,358,0.0,2.0,84,0.00,,,0.34,WeatherCatV1.12B45,2013-02-22 10:08:00,
2013-02-22 05:13:00,20.8,17.0,30.31,North,358,0.0,0.0,85,0.00,,,0.34,WeatherCatV1.12B45,2013-02-22 10:13:00,
2013-02-22 05:18:00,20.6,16.5,30.31,North,358,0.0,2.0,84,0.00,,,0.34,WeatherCatV1.12B45,2013-02-22 10:18:00,
2013-02-22 05:23:00,20.6,16.5,30.32,North,358,0.0,0.0,84,0.00,,,0.34,WeatherCatV1.12B45,2013-02-22 10:23:00,
2013-02-22 05:28:00,20.3,16.3,30.33,North,358,0.0,0.0,84,0.00,,,0.34,WeatherCatV1.12B45,2013-02-22 10:28:00,
2013-02-22 05:33:00,20.3,16.3,30.33,North,358,0.0,0.0,84,0.00,,,0.34,WeatherCatV1.12B45,2013-02-22 10:33:00,
2013-02-22 05:38:00,19.9,15.9,30.33,North,358,0.0,0.0,84,0.00,,,0.34,WeatherCatV1.12B45,2013-02-22 10:38:00,
2013-02-22 05:43:00,19.6,15.6,30.34,North,358,0.0,0.0,84,0.00,,,0.34,WeatherCatV1.12B45,2013-02-22 10:43:00,
2013-02-22 05:48:00,19.4,15.4,30.33,North,358,0.0,0.0,84,0.00,,,0.34,WeatherCatV1.12B45,2013-02-22 10:48:00,
2013-02-22 05:53:00,19.3,15.3,30.34,North,358,0.0,0.0,84,0.00,,,0.34,WeatherCatV1.12B45,2013-02-22 10:53:00,
2013-02-22 05:58:00,19.0,15.0,30.34,North,358,0.0,0.0,84,0.00,,,0.34,WeatherCatV1.12B45,2013-02-22 10:58:00,
2013-02-22 06:03:00,18.7,14.7,30.34,North,358,0.0,0.0,84,0.00,,,0.34,WeatherCatV1.12B45,2013-02-22 11:03:00,
2013-02-22 06:08:00,18.4,14.7,30.36,North,358,0.0,2.0,85,0.00,,,0.34,WeatherCatV1.12B45,2013-02-22 11:08:00,
2013-02-22 06:13:00,18.3,14.6,30.36,North,358,0.0,0.0,85,0.00,,,0.34,WeatherCatV1.12B45,2013-02-22 11:13:00,
2013-02-22 06:18:00,18.1,14.4,30.36,North,358,0.0,0.0,85,0.00,,,0.34,WeatherCatV1.12B45,2013-02-22 11:18:00,
2013-02-22 06:23:00,17.9,14.4,30.41,North,358,0.0,0.0,86,0.00,,,0.34,WeatherCatV1.12B45,2013-02-22 11:23:00,
2013-02-22 06:24:00,17.7,14.2,30.36,North,358,0.0,0.0,86,0.00,,,0.34,WeatherCatV1.12B45,2013-02-22 11:24:00,
2013-02-22 06:29:00,17.7,14.2,30.37,North,358,0.0,0.0,86,0.00,,,0.34,WeatherCatV1.12B45,2013-02-22 11:29:00,
2013-02-22 06:34:00,17.7,14.5,30.37,North,358,0.0,0.0,87,0.00,,,0.34,WeatherCatV1.12B45,2013-02-22 11:34:00,
2013-02-22 06:39:00,17.6,14.1,30.37,North,358,0.0,0.0,86,0.00,,,0.34,WeatherCatV1.12B45,2013-02-22 11:39:00,
2013-02-22 06:44:00,17.6,14.1,30.38,North,358,0.0,0.0,86,0.00,,,0.34,WeatherCatV1.12B45,2013-02-22 11:44:00,
2013-02-22 06:49:00,17.6,14.1,30.38,North,358,0.0,0.0,86,0.00,,,0.34,WeatherCatV1.12B45,2013-02-22 11:49:00,
2013-02-22 06:54:00,17.6,14.1,30.39,North,358,0.0,0.0,86,0.00,,,0.34,WeatherCatV1.12B45,2013-02-22 11:54:00,
2013-02-22 06:59:00,17.6,14.4,30.42,North,358,0.0,0.0,87,0.00,,,0.34,WeatherCatV1.12B45,2013-02-22 11:59:00,
2013-02-22 07:04:00,17.7,14.5,30.40,North,358,0.0,0.0,87,0.00,,,0.34,WeatherCatV1.12B45,2013-02-22 12:04:00,
2013-02-22 07:09:00,18.0,15.1,30.40,North,358,0.0,0.0,88,0.00,,,0.34,WeatherCatV1.12B45,2013-02-22 12:09:00,
2013-02-22 07:14:00,18.5,15.8,30.40,North,358,0.0,0.0,89,0.00,,,0.34,WeatherCatV1.12B45,2013-02-22 12:14:00,
2013-02-22 07:19:00,19.5,16.8,30.40,North,358,0.0,0.0,89,0.00,,,0.34,WeatherCatV1.12B45,2013-02-22 12:19:00,
2013-02-22 07:24:00,20.6,17.6,30.40,North,358,0.0,0.0,88,0.00,,,0.34,WeatherCatV1.12B45,2013-02-22 12:24:00,
2013-02-22 07:29:00,21.2,17.7,30.41,North,358,0.0,0.0,86,0.00,,,0.34,WeatherCatV1.12B45,2013-02-22 12:29:00,
2013-02-22 07:34:00,22.0,18.2,30.40,North,358,0.0,0.0,85,0.00,,,0.34,WeatherCatV1.12B45,2013-02-22 12:34:00,
2013-02-22 07:39:00,22.4,18.3,30.40,North,358,0.0,0.0,84,0.00,,,0.34,WeatherCatV1.12B45,2013-02-22 12:39:00,
2013-02-22 07:44:00,22.9,18.2,30.41,North,358,0.0,0.0,82,0.00,,,0.34,WeatherCatV1.12B45,2013-02-22 12:44:00,
2013-02-22 07:49:00,23.5,18.8,30.42,North,358,0.0,0.0,82,0.00,,,0.34,WeatherCatV1.12B45,2013-02-22 12:49:00,
2013-02-22 07:54:00,23.9,18.9,30.42,North,358,0.0,0.0,81,0.00,,,0.34,WeatherCatV1.12B45,2013-02-22 12:54:00,
2013-02-22 07:59:00,25.0,20.0,30.42,North,358,0.0,0.0,81,0.00,,,0.34,WeatherCatV1.12B45,2013-02-22 12:59:00,
2013-02-22 08:04:00,25.7,20.1,30.40,North,358,2.0,4.0,79,0.00,,,0.34,WeatherCatV1.12B45,2013-02-22 13:04:00,
2013-02-22 08:09:00,26.3,20.1,30.41,NE,55,1.0,2.0,77,0.00,,,0.34,WeatherCatV1.12B45,2013-02-22 13:09:00,
2013-02-22 08:14:00,27.1,20.6,30.41,NNE,21,2.0,5.0,76,0.00,,,0.34,WeatherCatV1.12B45,2013-02-22 13:14:00,
2013-02-22 08:19:00,27.4,20.5,30.41,NNE,21,3.0,4.0,75,0.00,,,0.34,WeatherCatV1.12B45,2013-02-22 13:19:00,
2013-02-22 08:24:00,28.1,20.6,30.45,North,356,3.0,7.0,73,0.00,,,0.34,WeatherCatV1.12B45,2013-02-22 13:24:00,
2013-02-22 08:29:00,28.4,20.5,30.40,North,0,2.0,8.0,72,0.00,,,0.34,WeatherCatV1.12B45,2013-02-22 13:29:00,
2013-02-22 08:34:00,28.8,20.6,30.41,NNE,12,7.0,7.0,71,0.27,,,1.16,WeatherCatV1.12B45,2013-02-22 13:34:00,
2013-02-22 08:39:00,29.1,20.6,30.40,North,359,7.0,8.0,70,0.00,,,1.16,WeatherCatV1.12B45,2013-02-22 13:39:00,
2013-02-22 08:44:00,29.4,20.8,30.40,NE,46,3.0,4.0,70,0.00,,,1.16,WeatherCatV1.12B45,2013-02-22 13:44:00,
2013-02-22 08:49:00,29.9,21.0,30.40,NE,52,0.0,6.0,69,0.00,,,1.16,WeatherCatV1.12B45,2013-02-22 13:49:00,
2013-02-22 08:54:00,30.5,21.2,30.41,NE,46,2.0,5.0,68,0.00,,,1.16,WeatherCatV1.12B45,2013-02-22 13:54:00,
2013-02-22 08:59:00,30.8,21.2,30.41,North,0,4.0,5.0,67,0.00,,,1.16,WeatherCatV1.12B45,2013-02-22 13:59:00,
2013-02-22 09:04:00,30.8,21.2,30.40,North,6,1.0,6.0,67,0.00,,,1.16,WeatherCatV1.12B45,2013-02-22 14:04:00,
2013-02-22 09:09:00,30.8,20.4,30.40,North,352,7.0,7.0,65,0.00,,,1.16,WeatherCatV1.12B45,2013-02-22 14:09:00,
2013-02-22 09:14:00,30.9,20.9,30.41,North,354,5.0,6.0,66,0.00,,,1.16,WeatherCatV1.12B45,2013-02-22 14:14:00,
2013-02-22 09:19:00,31.2,20.8,30.41,NE,54,0.0,6.0,65,0.00,,,1.16,WeatherCatV1.12B45,2013-02-22 14:19:00,
2013-02-22 09:24:00,31.3,20.6,30.40,North,0,0.0,9.0,64,0.00,,,1.16,WeatherCatV1.12B45,2013-02-22 14:24:00,
2013-02-22 09:29:00,31.6,20.8,30.41,NE,44,0.0,4.0,64,0.00,,,1.16,WeatherCatV1.12B45,2013-02-22 14:29:00,
2013-02-22 09:34:00,32.1,21.3,30.42,North,359,6.0,6.0,64,0.00,,,1.16,WeatherCatV1.12B45,2013-02-22 14:34:00,
2013-02-22 09:39:00,32.2,21.0,30.41,NE,42,1.0,3.0,63,0.00,,,1.16,WeatherCatV1.12B45,2013-02-22 14:39:00,
2013-02-22 09:44:00,32.7,21.5,30.41,North,4,5.0,9.0,63,0.00,,,1.16,WeatherCatV1.12B45,2013-02-22 14:44:00,
2013-02-22 09:49:00,32.8,21.2,30.40,ENE,66,4.0,4.0,62,0.00,,,1.16,WeatherCatV1.12B45,2013-02-22 14:49:00,
2013-02-22 09:54:00,32.8,20.9,30.40,North,359,1.0,9.0,61,0.00,,,1.16,WeatherCatV1.12B45,2013-02-22 14:54:00,
2013-02-22 09:59:00,33.1,21.1,30.40,North,0,7.0,7.0,61,0.00,,,1.16,WeatherCatV1.12B45,2013-02-22 14:59:00,
2013-02-22 10:04:00,33.2,21.6,30.40,North,0,0.0,4.0,62,0.00,,,1.16,WeatherCatV1.12B45,2013-02-22 15:04:00,
2013-02-22 10:09:00,33.5,21.1,30.44,North,354,7.0,12.0,60,0.00,,,1.16,WeatherCatV1.12B45,2013-02-22 15:09:00,
2013-02-22 10:14:00,33.3,20.9,30.40,North,357,3.0,6.0,60,0.00,,,1.16,WeatherCatV1.12B45,2013-02-22 15:14:00,
2013-02-22 10:20:00,34.1,21.7,30.38,ENE,70,1.0,7.0,60,0.00,,,1.16,WeatherCatV1.12B45,2013-02-22 15:20:00,
2013-02-22 10:25:00,34.7,21.0,30.40,ENE,58,6.0,7.0,57,0.00,,,1.16,WeatherCatV1.12B45,2013-02-22 15:25:00,
2013-02-22 10:30:00,34.5,20.9,30.39,North,356,3.0,9.0,57,0.00,,,1.16,WeatherCatV1.12B45,2013-02-22 15:30:00,
2013-02-22 10:35:00,34.3,21.1,30.39,NE,44,2.0,4.0,58,0.00,,,1.16,WeatherCatV1.12B45,2013-02-22 15:35:00,
2013-02-22 10:40:00,34.3,21.1,30.39,NNE,28,3.0,7.0,58,0.00,,,1.16,WeatherCatV1.12B45,2013-02-22 15:40:00,
2013-02-22 10:45:00,34.4,20.8,30.39,NE,53,0.0,3.0,57,0.00,,,1.16,WeatherCatV1.12B45,2013-02-22 15:45:00,
2013-02-22 10:50:00,34.6,21.8,30.39,NNE,23,3.0,5.0,59,0.00,,,1.16,WeatherCatV1.12B45,2013-02-22 15:50:00,
2013-02-22 10:55:00,34.6,21.0,30.39,NNE,19,2.0,7.0,57,0.00,,,1.16,WeatherCatV1.12B45,2013-02-22 15:55:00,
2013-02-22 10:56:00,34.6,21.4,30.38,NNE,23,4.0,5.0,58,0.00,,,1.16,WeatherCatV1.12B45,2013-02-22 15:56:00,
2013-02-22 11:01:00,34.9,20.8,30.39,NE,35,5.0,11.0,56,0.00,,,1.16,WeatherCatV1.12B45,2013-02-22 16:01:00,
2013-02-22 11:06:00,34.9,21.2,30.38,North,1,1.0,6.0,57,0.00,,,1.16,WeatherCatV1.12B45,2013-02-22 16:06:00,
2013-02-22 11:11:00,34.6,21.0,30.38,North,356,6.0,8.0,57,0.00,,,1.16,WeatherCatV1.12B45,2013-02-22 16:11:00,
2013-02-22 11:16:00,35.2,21.1,30.37,ENE,61,2.0,7.0,56,0.00,,,1.16,WeatherCatV1.12B45,2013-02-22 16:16:00,
2013-02-22 11:21:00,35.7,20.7,30.37,NE,49,3.0,7.0,54,0.00,,,1.16,WeatherCatV1.12B45,2013-02-22 16:21:00,
2013-02-22 11:26:00,36.5,21.5,30.37,North,2,7.0,11.0,54,0.00,,,1.16,WeatherCatV1.12B45,2013-02-22 16:26:00,
2013-02-22 11:31:00,36.7,20.8,30.36,NE,51,10.0,11.0,52,0.00,,,1.16,WeatherCatV1.12B45,2013-02-22 16:31:00,
2013-02-22 11:36:00,36.7,20.8,30.37,East,81,3.0,7.0,52,0.00,,,1.16,WeatherCatV1.12B45,2013-02-22 16:36:00,
2013-02-22 11:41:00,37.1,21.1,30.36,NE,55,1.0,4.0,52,0.00,,,1.16,WeatherCatV1.12B45,2013-02-22 16:41:00,
2013-02-22 11:46:00,36.9,20.5,30.37,NE,53,5.0,7.0,51,0.00,,,1.16,WeatherCatV1.12B45,2013-02-22 16:46:00,
2013-02-22 11:51:00,37.0,21.0,30.37,North,358,3.0,7.0,52,0.00,,,1.16,WeatherCatV1.12B45,2013-02-22 16:51:00,
2013-02-22 11:56:00,37.5,21.5,30.36,ESE,111,4.0,5.0,52,0.00,,,1.16,WeatherCatV1.12B45,2013-02-22 16:56:00,
2013-02-22 12:01:00,37.7,20.8,30.36,ENE,64,4.0,6.0,50,0.00,,,1.16,WeatherCatV1.12B45,2013-02-22 17:01:00,
2013-02-22 12:06:00,37.8,21.3,30.36,East,92,4.0,7.0,51,0.00,,,1.16,WeatherCatV1.12B45,2013-02-22 17:06:00,
2013-02-22 12:11:00,37.6,20.7,30.36,NE,51,3.0,6.0,50,0.00,,,1.16,WeatherCatV1.12B45,2013-02-22 17:11:00,
2013-02-22 12:16:00,37.5,20.6,30.36,NE,51,4.0,6.0,50,0.00,,,1.16,WeatherCatV1.12B45,2013-02-22 17:16:00,
2013-02-22 12:21:00,37.3,19.9,30.36,NE,55,3.0,6.0,49,0.00,,,1.16,WeatherCatV1.12B45,2013-02-22 17:21:00,
2013-02-22 12:26:00,37.3,19.9,30.36,NNE,15,3.0,7.0,49,0.00,,,1.16,WeatherCatV1.12B45,2013-02-22 17:26:00,
2013-02-22 12:31:00,37.4,20.5,30.36,East,83,1.0,6.0,50,0.00,,,1.16,WeatherCatV1.12B45,2013-02-22 17:31:00,
2013-02-22 12:36:00,37.7,20.8,30.35,East,82,1.0,4.0,50,0.00,,,1.16,WeatherCatV1.12B45,2013-02-22 17:36:00,
2013-02-22 12:41:00,37.7,20.3,30.35,NW,311,5.0,5.0,49,0.00,,,1.16,WeatherCatV1.12B45,2013-02-22 17:41:00,
2013-02-22 12:46:00,37.6,20.7,30.36,NW,323,3.0,5.0,50,0.00,,,1.16,WeatherCatV1.12B45,2013-02-22 17:46:00,
2013-02-22 12:51:00,37.6,19.7,30.36,North,5,4.0,8.0,48,0.00,,,1.16,WeatherCatV1.12B45,2013-02-22 17:51:00,
2013-02-22 12:56:00,37.5,20.1,30.36,North,1,5.0,6.0,49,0.00,,,1.16,WeatherCatV1.12B45,2013-02-22 17:56:00,
2013-02-22 13:01:00,37.6,20.7,30.36,North,4,1.0,2.0,50,0.00,,,1.16,WeatherCatV1.12B45,2013-02-22 18:01:00,
2013-02-22 13:06:00,38.5,21.5,30.36,NE,40,4.0,4.0,50,0.00,,,1.16,WeatherCatV1.12B45,2013-02-22 18:06:00,
2013-02-22 13:11:00,38.6,20.6,30.35,East,96,1.0,6.0,48,0.00,,,1.16,WeatherCatV1.12B45,2013-02-22 18:11:00,
2013-02-22 13:16:00,39.0,20.5,30.36,ENE,73,4.0,5.0,47,0.00,,,1.16,WeatherCatV1.12B45,2013-02-22 18:16:00,
2013-02-22 13:21:00,39.1,21.1,30.35,ENE,73,0.0,4.0,48,0.00,,,1.16,WeatherCatV1.12B45,2013-02-22 18:21:00,
2013-02-22 13:26:00,39.9,21.8,30.36,South,182,2.0,5.0,48,0.00,,,1.16,WeatherCatV1.12B45,2013-02-22 18:26:00,
2013-02-22 13:31:00,40.9,22.2,30.36,South,175,3.0,4.0,47,0.00,,,1.16,WeatherCatV1.12B45,2013-02-22 18:31:00,
2013-02-22 13:36:00,41.2,22.5,30.35,SSE,151,0.0,4.0,47,0.00,,,1.16,WeatherCatV1.12B45,2013-02-22 18:36:00,
2013-02-22 13:41:00,41.2,22.0,30.35,SSE,151,1.0,3.0,46,0.00,,,1.16,WeatherCatV1.12B45,2013-02-22 18:41:00,
2013-02-22 13:46:00,41.0,22.3,30.35,SSE,152,1.0,4.0,47,0.00,,,1.16,WeatherCatV1.12B45,2013-02-22 18:46:00,
2013-02-22 13:51:00,40.9,22.2,30.35,SSE,152,2.0,4.0,47,0.00,,,1.16,WeatherCatV1.12B45,2013-02-22 18:51:00,
2013-02-22 13:56:00,40.9,21.7,30.34,SE,142,4.0,4.0,46,0.00,,,1.16,WeatherCatV1.12B45,2013-02-22 18:56:00,
2013-02-22 14:01:00,40.1,21.0,30.33,ENE,68,2.0,4.0,46,0.00,,,1.16,WeatherCatV1.12B45,2013-02-22 19:01:00,
2013-02-22 14:06:00,39.5,21.0,30.34,ENE,71,0.0,4.0,47,0.00,,,1.16,WeatherCatV1.12B45,2013-02-22 19:06:00,
2013-02-22 14:11:00,39.3,20.8,30.34,ENE,71,0.0,0.0,47,0.00,,,1.16,WeatherCatV1.12B45,2013-02-22 19:11:00,
2013-02-22 14:16:00,39.6,22.5,30.34,ENE,71,2.0,4.0,50,0.00,,,1.16,WeatherCatV1.12B45,2013-02-22 19:16:00,
2013-02-22 14:21:00,39.9,20.8,30.34,ENE,71,0.0,4.0,46,0.00,,,1.16,WeatherCatV1.12B45,2013-02-22 19:21:00,
2013-02-22 14:26:00,39.7,21.1,30.34,ENE,71,1.0,3.0,47,0.00,,,1.16,WeatherCatV1.12B45,2013-02-22 19:26:00,
2013-02-22 14:31:00,39.7,21.6,30.34,ENE,71,2.0,4.0,48,0.00,,,1.16,WeatherCatV1.12B45,2013-02-22 19:31:00,
2013-02-22 14:36:00,40.1,22.0,30.34,ENE,71,1.0,2.0,48,0.00,,,1.16,WeatherCatV1.12B45,2013-02-22 19:36:00,
2013-02-22 14:41:00,40.1,21.5,30.34,ENE,72,2.0,5.0,47,0.00,,,1.16,WeatherCatV1.12B45,2013-02-22 19:41:00,
2013-02-22 14:46:00,40.3,21.7,30.34,East,86,2.0,4.0,47,0.00,,,1.16,WeatherCatV1.12B45,2013-02-22 19:46:00,
2013-02-22 14:51:00,39.7,21.1,30.34,East,86,2.0,4.0,47,0.00,,,1.16,WeatherCatV1.12B45,2013-02-22 19:51:00,
2013-02-22 14:56:00,39.2,20.7,30.34,North,1,2.0,4.0,47,0.00,,,1.16,WeatherCatV1.12B45,2013-02-22 19:56:00,
2013-02-22 15:01:00,39.0,21.0,30.34,NNE,19,2.0,3.0,48,0.00,,,1.16,WeatherCatV1.12B45,2013-02-22 20:01:00,
2013-02-22 15:06:00,39.4,20.9,30.33,ESE,118,3.0,5.0,47,0.00,,,1.16,WeatherCatV1.12B45,2013-02-22 20:06:00,
2013-02-22 15:11:00,39.6,21.0,30.34,NNE,29,3.0,6.0,47,0.00,,,1.16,WeatherCatV1.12B45,2013-02-22 20:11:00,
2013-02-22 15:16:00,39.5,21.0,30.34,NE,44,1.0,6.0,47,0.00,,,1.16,WeatherCatV1.12B45,2013-02-22 20:16:00,
2013-02-22 15:19:00,39.2,20.7,30.34,NE,48,3.0,5.0,47,0.00,,,1.16,WeatherCatV1.12B45,2013-02-22 20:19:00,
2013-02-22 15:24:00,39.1,20.6,30.34,NE,48,0.0,2.0,47,22.35,,,1.47,WeatherCatV1.12B45,2013-02-22 20:24:00,
2013-02-22 15:29:00,39.2,20.7,30.35,East,87,1.0,4.0,47,0.00,,,1.47,WeatherCatV1.12B45,2013-02-22 20:29:00,
2013-02-22 15:34:00,39.4,20.9,30.35,East,87,2.0,4.0,47,0.00,,,1.47,WeatherCatV1.12B45,2013-02-22 20:34:00,
2013-02-22 15:39:00,39.2,20.2,30.39,NE,49,2.0,6.0,46,0.00,,,1.47,WeatherCatV1.12B45,2013-02-22 20:39:00,
2013-02-22 15:44:00,39.3,22.2,30.38,ENE,78,3.0,4.0,50,0.00,,,1.47,WeatherCatV1.12B45,2013-02-22 20:44:00,
2013-02-22 15:49:00,39.8,21.7,30.39,East,88,5.0,5.0,48,0.00,,,1.47,WeatherCatV1.12B45,2013-02-22 20:49:00,
2013-02-22 15:54:00,40.0,22.4,30.35,SW,230,4.0,4.0,49,0.00,,,1.47,WeatherCatV1.12B45,2013-02-22 20:54:00,
2013-02-22 15:59:00,40.0,21.4,30.34,SW,216,3.0,4.0,47,0.00,,,1.47,WeatherCatV1.12B45,2013-02-22 20:59:00,
2013-02-22 16:04:00,39.2,20.7,30.34,SW,216,0.0,2.0,47,0.00,,,1.47,WeatherCatV1.12B45,2013-02-22 21:04:00,
2013-02-22 16:09:00,39.0,21.0,30.33,SW,216,1.0,4.0,48,0.00,,,1.47,WeatherCatV1.12B45,2013-02-22 21:09:00,
2013-02-22 16:14:00,39.2,21.7,30.35,SSW,194,4.0,4.0,49,0.00,,,1.47,WeatherCatV1.12B45,2013-02-22 21:14:00,
2013-02-22 16:19:00,39.2,21.7,30.33,South,190,1.0,5.0,49,0.00,,,1.47,WeatherCatV1.12B45,2013-02-22 21:19:00,
2013-02-22 16:24:00,38.9,21.4,30.33,SSE,166,1.0,2.0,49,0.00,,,1.47,WeatherCatV1.12B45,2013-02-22 21:24:00,
2013-02-22 16:29:00,38.9,21.4,30.33,SSW,208,6.0,6.0,49,0.00,,,1.47,WeatherCatV1.12B45,2013-02-22 21:29:00,
2013-02-22 16:34:00,38.8,22.2,30.33,SSW,207,2.0,4.0,51,0.00,,,1.47,WeatherCatV1.12B45,2013-02-22 21:34:00,
2013-02-22 16:39:00,38.5,21.5,30.33,SSW,193,0.0,5.0,50,0.00,,,1.47,WeatherCatV1.12B45,2013-02-22 21:39:00,
2013-02-22 16:44:00,38.2,21.7,30.33,SSW,193,4.0,4.0,51,0.00,,,1.47,WeatherCatV1.12B45,2013-02-22 21:44:00,
2013-02-22 16:49:00,38.0,21.5,30.33,SSW,193,1.0,3.0,51,0.00,,,1.47,WeatherCatV1.12B45,2013-02-22 21:49:00,
2013-02-22 16:54:00,37.9,21.9,30.33,SSW,193,3.0,4.0,52,0.00,,,1.47,WeatherCatV1.12B45,2013-02-22 21:54:00,
2013-02-22 16:59:00,37.8,21.8,30.33,SSW,193,0.0,2.0,52,0.00,,,1.47,WeatherCatV1.12B45,2013-02-22 21:59:00,
2013-02-22 17:04:00,37.6,21.6,30.33,SSW,193,0.0,1.0,52,0.00,,,1.47,WeatherCatV1.12B45,2013-02-22 22:04:00,
2013-02-22 17:09:00,37.5,21.0,30.33,SSW,193,0.0,0.0,51,0.00,,,1.47,WeatherCatV1.12B45,2013-02-22 22:09:00,
2013-02-22 17:14:00,37.3,21.3,30.33,SSW,193,0.0,0.0,52,0.00,,,1.47,WeatherCatV1.12B45,2013-02-22 22:14:00,
2013-02-22 17:19:00,37.1,21.1,30.33,SSW,193,0.0,0.0,52,0.00,,,1.47,WeatherCatV1.12B45,2013-02-22 22:19:00,
2013-02-22 17:24:00,36.9,21.8,30.34,SSW,193,0.0,0.0,54,0.00,,,1.47,WeatherCatV1.12B45,2013-02-22 22:24:00,
2013-02-22 17:29:00,36.7,22.1,30.34,SSW,193,0.0,0.0,55,0.00,,,1.47,WeatherCatV1.12B45,2013-02-22 22:29:00,
2013-02-22 17:34:00,36.6,22.0,30.33,SSW,193,0.0,0.0,55,0.00,,,1.47,WeatherCatV1.12B45,2013-02-22 22:34:00,
2013-02-22 17:39:00,36.2,22.0,30.33,SSW,193,0.0,0.0,56,0.00,,,1.47,WeatherCatV1.12B45,2013-02-22 22:39:00,
2013-02-22 17:44:00,35.9,22.6,30.33,SSW,193,0.0,0.0,58,0.00,,,1.47,WeatherCatV1.12B45,2013-02-22 22:44:00,
2013-02-22 17:49:00,35.6,22.3,30.34,SSW,193,0.0,2.0,58,0.00,,,1.47,WeatherCatV1.12B45,2013-02-22 22:49:00,
2013-02-22 17:54:00,35.2,23.5,30.34,SSW,193,0.0,0.0,62,0.00,,,1.47,WeatherCatV1.12B45,2013-02-22 22:54:00,
2013-02-22 17:59:00,34.9,23.6,30.34,SSW,193,0.0,0.0,63,0.00,,,1.47,WeatherCatV1.12B45,2013-02-22 22:59:00,
2013-02-22 18:04:00,34.6,22.6,30.35,SSW,193,0.0,0.0,61,0.00,,,1.47,WeatherCatV1.12B45,2013-02-22 23:04:00,
2013-02-22 18:09:00,34.2,22.6,30.34,SSW,193,0.0,0.0,62,0.00,,,1.47,WeatherCatV1.12B45,2013-02-22 23:09:00,
2013-02-22 18:14:00,33.9,22.3,30.35,SSW,193,1.0,3.0,62,0.00,,,1.47,WeatherCatV1.12B45,2013-02-22 23:14:00,
2013-02-22 18:19:00,33.8,21.8,30.36,SSW,193,1.0,2.0,61,0.00,,,1.47,WeatherCatV1.12B45,2013-02-22 23:19:00,
2013-02-22 18:24:00,33.8,22.2,30.35,SSW,193,1.0,3.0,62,0.00,,,1.47,WeatherCatV1.12B45,2013-02-22 23:24:00,
2013-02-22 18:29:00,33.8,22.2,30.35,SSW,193,0.0,2.0,62,0.00,,,1.47,WeatherCatV1.12B45,2013-02-22 23:29:00,
2013-02-22 18:34:00,33.8,22.2,30.35,South,190,3.0,6.0,62,0.00,,,1.47,WeatherCatV1.12B45,2013-02-22 23:34:00,
2013-02-22 18:39:00,33.9,22.3,30.35,South,190,0.0,1.0,62,0.00,,,1.47,WeatherCatV1.12B45,2013-02-22 23:39:00,
2013-02-22 18:44:00,33.9,22.7,30.33,South,190,1.0,3.0,63,0.00,,,1.47,WeatherCatV1.12B45,2013-02-22 23:44:00,
2013-02-22 18:49:00,33.8,22.6,30.36,South,190,1.0,3.0,63,0.00,,,1.47,WeatherCatV1.12B45,2013-02-22 23:49:00,
2013-02-22 18:54:00,33.6,22.7,30.36,South,190,3.0,5.0,64,0.00,,,1.47,WeatherCatV1.12B45,2013-02-22 23:54:00,
2013-02-22 18:59:00,33.5,23.0,30.36,South,190,2.0,4.0,65,0.00,,,1.47,WeatherCatV1.12B45,2013-02-22 23:59:00,
2013-02-22 19:04:00,33.5,23.0,30.36,South,190,0.0,3.0,65,0.00,,,1.47,WeatherCatV1.12B45,2013-02-23 00:04:00,
2013-02-22 19:09:00,33.5,23.4,30.36,South,190,1.0,3.0,66,0.00,,,1.47,WeatherCatV1.12B45,2013-02-23 00:09:00,
2013-02-22 19:14:00,33.5,23.0,30.37,South,190,0.0,4.0,65,0.00,,,1.47,WeatherCatV1.12B45,2013-02-23 00:14:00,
2013-02-22 19:19:00,33.5,23.7,30.36,South,190,2.0,3.0,67,0.00,,,1.47,WeatherCatV1.12B45,2013-02-23 00:19:00,
2013-02-22 19:24:00,33.3,23.9,30.36,South,190,1.0,3.0,68,0.00,,,1.47,WeatherCatV1.12B45,2013-02-23 00:24:00,
2013-02-22 19:29:00,33.3,23.5,30.36,South,190,3.0,5.0,67,0.00,,,1.47,WeatherCatV1.12B45,2013-02-23 00:29:00,
2013-02-22 19:34:00,33.2,23.8,30.36,South,190,2.0,3.0,68,0.00,,,1.47,WeatherCatV1.12B45,2013-02-23 00:34:00,
2013-02-22 19:39:00,33.2,24.1,30.35,South,190,1.0,3.0,69,0.00,,,1.47,WeatherCatV1.12B45,2013-02-23 00:39:00,
2013-02-22 19:44:00,33.0,24.0,30.36,South,190,2.0,4.0,69,0.00,,,1.47,WeatherCatV1.12B45,2013-02-23 00:44:00,
2013-02-22 19:49:00,33.1,24.4,30.35,South,190,1.0,3.0,70,0.00,,,1.47,WeatherCatV1.12B45,2013-02-23 00:49:00,
2013-02-22 19:54:00,33.1,24.4,30.37,South,190,1.0,5.0,70,0.00,,,1.47,WeatherCatV1.12B45,2013-02-23 00:54:00,
2013-02-22 19:59:00,32.9,24.2,30.36,South,190,1.0,3.0,70,0.00,,,1.47,WeatherCatV1.12B45,2013-02-23 00:59:00,
2013-02-22 20:04:00,32.9,24.5,30.36,South,190,2.0,3.0,71,0.00,,,1.47,WeatherCatV1.12B45,2013-02-23 01:04:00,
2013-02-22 20:09:00,32.7,24.4,30.36,South,190,1.0,2.0,71,0.00,,,1.47,WeatherCatV1.12B45,2013-02-23 01:09:00,
2013-02-22 20:14:00,32.7,24.4,30.37,South,190,0.0,3.0,71,0.00,,,1.47,WeatherCatV1.12B45,2013-02-23 01:14:00,
2013-02-22 20:19:00,32.5,24.5,30.37,South,190,2.0,4.0,72,0.00,,,1.47,WeatherCatV1.12B45,2013-02-23 01:19:00,
2013-02-22 20:24:00,32.5,24.8,30.36,South,190,0.0,2.0,73,0.00,,,1.47,WeatherCatV1.12B45,2013-02-23 01:24:00,
2013-02-22 20:29:00,32.4,24.7,30.36,South,190,0.0,1.0,73,0.00,,,1.47,WeatherCatV1.12B45,2013-02-23 01:29:00,
2013-02-22 20:34:00,32.4,24.7,30.36,South,190,0.0,1.0,73,0.00,,,1.47,WeatherCatV1.12B45,2013-02-23 01:34:00,
2013-02-22 20:39:00,32.4,24.7,30.36,South,190,1.0,5.0,73,0.00,,,1.47,WeatherCatV1.12B45,2013-02-23 01:39:00,
2013-02-22 20:44:00,32.4,25.1,30.35,South,190,2.0,3.0,74,0.00,,,1.47,WeatherCatV1.12B45,2013-02-23 01:44:00,
2013-02-22 20:49:00,32.4,24.7,30.36,South,190,2.0,4.0,73,0.00,,,1.47,WeatherCatV1.12B45,2013-02-23 01:49:00,
2013-02-22 20:54:00,32.2,24.9,30.37,South,190,1.0,2.0,74,0.00,,,1.47,WeatherCatV1.12B45,2013-02-23 01:54:00,
2013-02-22 20:59:00,32.2,24.9,30.37,South,190,0.0,1.0,74,0.00,,,1.47,WeatherCatV1.12B45,2013-02-23 01:59:00,
2013-02-22 21:04:00,32.1,24.8,30.36,South,190,2.0,2.0,74,0.00,,,1.47,WeatherCatV1.12B45,2013-02-23 02:04:00,
2013-02-22 21:09:00,32.1,25.1,30.36,South,190,0.0,2.0,75,0.00,,,1.47,WeatherCatV1.12B45,2013-02-23 02:09:00,
2013-02-22 21:14:00,32.0,25.0,30.35,South,190,0.0,0.0,75,0.00,,,1.47,WeatherCatV1.12B45,2013-02-23 02:14:00,
2013-02-22 21:19:00,31.8,24.8,30.36,South,190,1.0,2.0,75,0.00,,,1.47,WeatherCatV1.12B45,2013-02-23 02:19:00,
2013-02-22 21:24:00,31.8,24.8,30.37,South,190,0.0,2.0,75,0.00,,,1.47,WeatherCatV1.12B45,2013-02-23 02:24:00,
2013-02-22 21:29:00,31.6,24.9,30.37,South,190,0.0,0.0,76,0.00,,,1.47,WeatherCatV1.12B45,2013-02-23 02:29:00,
2013-02-22 21:34:00,31.7,25.0,30.36,South,190,0.0,0.0,76,0.00,,,1.47,WeatherCatV1.12B45,2013-02-23 02:34:00,
2013-02-22 21:39:00,31.7,25.0,30.36,South,190,0.0,0.0,76,0.00,,,1.47,WeatherCatV1.12B45,2013-02-23 02:39:00,
2013-02-22 21:44:00,31.5,25.1,30.36,South,190,0.0,0.0,77,0.00,,,1.47,WeatherCatV1.12B45,2013-02-23 02:44:00,
2013-02-22 21:49:00,31.5,25.1,30.36,South,190,0.0,0.0,77,0.00,,,1.47,WeatherCatV1.12B45,2013-02-23 02:49:00,
2013-02-22 21:54:00,31.5,25.1,30.37,South,190,0.0,0.0,77,0.00,,,1.47,WeatherCatV1.12B45,2013-02-23 02:54:00,
2013-02-22 21:59:00,31.5,25.1,30.36,South,190,0.0,0.0,77,0.00,,,1.47,WeatherCatV1.12B45,2013-02-23 02:59:00,
2013-02-22 22:04:00,31.5,25.1,30.37,South,190,0.0,0.0,77,0.00,,,1.47,WeatherCatV1.12B45,2013-02-23 03:04:00,
2013-02-22 22:09:00,31.5,25.4,30.37,South,190,0.0,0.0,78,15.33,,,1.78,WeatherCatV1.12B45,2013-02-23 03:09:00,
2013-02-22 22:14:00,31.5,25.1,30.36,South,190,0.0,0.0,77,0.02,,,1.78,WeatherCatV1.12B45,2013-02-23 03:14:00,
2013-02-22 22:19:00,31.5,25.4,30.36,South,190,0.0,0.0,78,0.00,,,1.78,WeatherCatV1.12B45,2013-02-23 03:19:00,
2013-02-22 22:24:00,31.4,25.7,30.36,South,190,0.0,0.0,79,0.00,,,1.78,WeatherCatV1.12B45,2013-02-23 03:24:00,
2013-02-22 22:29:00,31.3,25.6,30.36,South,190,0.0,0.0,79,0.00,,,1.78,WeatherCatV1.12B45,2013-02-23 03:29:00,
2013-02-22 22:34:00,31.2,25.5,30.36,South,190,0.0,0.0,79,0.00,,,1.78,WeatherCatV1.12B45,2013-02-23 03:34:00,
2013-02-22 22:39:00,31.2,25.5,30.36,South,190,0.0,0.0,79,0.00,,,1.78,WeatherCatV1.12B45,2013-02-23 03:39:00,
2013-02-22 22:44:00,31.2,25.5,30.36,South,190,0.0,0.0,79,0.00,,,1.78,WeatherCatV1.12B45,2013-02-23 03:44:00,
2013-02-22 22:49:00,31.2,25.2,30.36,South,190,0.0,0.0,78,6.85,,,2.09,WeatherCatV1.12B45,2013-02-23 03:49:00,
2013-02-22 22:54:00,31.0,25.0,30.36,South,190,0.0,0.0,78,0.00,,,2.09,WeatherCatV1.12B45,2013-02-23 03:54:00,
2013-02-22 22:59:00,30.9,24.9,30.36,South,190,0.0,2.0,78,0.00,,,2.09,WeatherCatV1.12B45,2013-02-23 03:59:00,
2013-02-22 23:04:00,30.8,24.8,30.36,South,190,0.0,2.0,78,0.00,,,2.09,WeatherCatV1.12B45,2013-02-23 04:04:00,
2013-02-22 23:09:00,30.6,24.9,30.36,South,190,0.0,0.0,79,0.00,,,2.09,WeatherCatV1.12B45,2013-02-23 04:09:00,
2013-02-22 23:14:00,30.6,24.9,30.35,South,190,0.0,0.0,79,0.00,,,2.09,WeatherCatV1.12B45,2013-02-23 04:14:00,
2013-02-22 23:19:00,30.6,25.2,30.35,South,190,1.0,2.0,80,0.00,,,2.09,WeatherCatV1.12B45,2013-02-23 04:19:00,
2013-02-22 23:24:00,30.6,25.2,30.35,South,190,0.0,0.0,80,0.00,,,2.09,WeatherCatV1.12B45,2013-02-23 04:24:00,
2013-02-22 23:29:00,30.5,25.1,30.36,South,190,0.0,0.0,80,0.07,,,2.14,WeatherCatV1.12B45,2013-02-23 04:29:00,
2013-02-22 23:34:00,30.5,25.4,30.35,South,190,0.0,0.0,81,0.04,,,2.40,WeatherCatV1.12B45,2013-02-23 04:34:00,
2013-02-22 23:39:00,30.5,25.4,30.36,South,190,0.0,0.0,81,0.00,,,2.40,WeatherCatV1.12B45,2013-02-23 04:39:00,
2013-02-22 23:44:00,30.4,25.3,30.35,South,190,0.0,0.0,81,0.00,,,2.40,WeatherCatV1.12B45,2013-02-23 04:44:00,
2013-02-22 23:49:00,30.3,25.2,30.35,South,190,0.0,0.0,81,0.00,,,2.40,WeatherCatV1.12B45,2013-02-23 04:49:00,
2013-02-22 23:54:00,30.1,25.0,30.30,South,190,0.0,0.0,81,0.00,,,2.40,WeatherCatV1.12B45,2013-02-23 04:54:00,
2013-02-22 23:59:00,29.8,24.7,30.35,South,190,0.0,0.0,81,0.00,,,2.40,WeatherCatV1.12B45,2013-02-23 04:59:00,